Wind_Speed
7 5 5 10 4 13 7 11 18 15 13 13 15 9 10 11 9 13 12 10 10 10 10 25 23 23 29 26 29 27 27 22 29 27 26 23 24 21 21 21 21 23 23 30
4 7 11 11 13 15 15 5 5 5 9 4 17 6 15 15 11 15 17 14 13 10 9 15 24 25 30 30 31 29 27 27 29 30 29 26 26 26 25 25 25 24 26 24
10 11 16 14 16 4 4 3 1 6 5 14 10 13 9 10 7 13 18 18 15 16 14 15 17 29 31 33 35 35 34 33 32 31 27 24 22 24 26 29 31 30 29 29
11 8 5 11 15 8 3 6 4 10 7 3 3 3 4 5 5 7 7 17 16 16 16 17 18 23 30 35 40 39 39 39 39 37 34 32 28 25 29 26 23 22 25 28
8 4 1 9 7 10 6 6 12 10 3 5 4 5 8 6 6 8 9 13 12 16 17 21 21 30 33 33 39 44 44 43 41 39 39 35 31 32 27 26 27 26 27 28
10 7 5 6 6 5 8 7 10 5 4 2 10 6 4 4 7 7 8 9 10 12 18 16 33 35 33 33 35 39 44 47 45 41 41 39 35 32 28 28 24 12 13 27
7 7 7 12 10 9 2 5 2 2 3 5 11 2 8 8 7 6 13 9 13 13 13 11 21 16 23 21 30 33 42 40 44 44 39 38 34 28 24 21 21 22 22 20
3 6 4 6 4 1 6 5 4 3 1 2 12 5 4 6 6 5 2 6 9 8 9 3 21 20 8 1 25 21 37 35 36 40 40 35 33 30 27 24 22 19 18 17
0 5 7 3 5 1 7 3 6 3 8 5 4 2 5 6 5 5 3 8 6 11 10 9 7 27 29 30 48 34 34 36 37 39 39 33 27 25 25 21 18 19 20 19
5 7 8 4 5 9 4 5 7 5 2 4 2 5 6 5 7 6 2 8 8 8 11 11 9 18 29 45 48 21 32 37 37 32 28 24 22 21 20 19 20 21 20 19
5 6 9 3 1 5 5 6 5 2 5 5 5 6 6 6 7 6 8 8 8 8 6 8 9 21 32 32 21 19 30 29 28 27 23 21 20 19 19 21 21 19 17 16
11 3 2 6 4 5 3 4 4 5 8 1 4 3 6 1 7 11 11 9 9 8 7 4 4 6 9 11 15 22 26 26 23 20 21 21 21 20 20 21 20 19 19 21
7 3 3 12 8 8 2 3 4 2 2 2 4 2 13 9 16 8 9 8 6 8 10 8 7 6 6 18 21 22 20 18 18 19 19 19 19 20 21 22 22 23 26 27
5 3 4 3 7 2 5 7 5 2 3 3 1 6 8 10 10 10 10 10 9 8 8 8 12 14 11 20 24 24 21 10 16 15 17 18 20 22 23 24 26 29 30 28
2 2 5 4 6 5 4 7 8 5 5 3 4 12 6 7 8 7 8 8 10 10 11 9 7 7 8 8 17 24 22 21 19 28 27 25 26 27 26 28 30 27 28 28
5 3 5 2 9 9 7 8 10 8 6 9 15 9 7 8 9 10 9 9 9 8 9 12 15 17 15 20 14 7 10 15 25 48 31 28 29 26 24 27 27 26 29 25
1 4 3 3 6 7 6 6 3 7 8 13 9 6 8 8 8 7 7 9 8 8 8 11 10 10 9 14 10 8 6 9 22 25 36 35 30 24 19 36 29 29 29 22
2 4 4 3 5 2 7 7 7 19 13 11 9 7 8 6 6 7 8 8 8 8 8 8 6 11 16 12 6 4 6 6 12 12 23 11 19 20 22 26 32 31 27 22
19 2 2 4 0 6 12 9 6 5 9 9 9 9 9 9 7 4 5 5 7 8 6 10 19 14 20 18 14 12 11 13 12 13 18 18 19 22 23 25 26 28 31 24
15 11 7 6 5 3 19 10 7 6 4 8 10 9 8 7 4 4 6 7 8 11 13 17 23 25 26 26 25 24 20 21 21 20 20 23 25 26 29 32 33 30 30 23
5 5 5 3 4 6 8 6 6 1 3 6 8 6 5 3 4 3 6 8 10 12 17 22 25 20 26 27 26 24 24 23 22 27 27 27 27 30 28 31 31 33 31 21
3 3 2 7 5 2 1 4 5 5 6 7 5 5 5 6 6 6 7 7 8 8 15 19 18 21 26 25 25 24 22 26 28 28 27 28 31 30 28 31 32 29 31 19
2 3 3 3 1 6 10 10 7 7 5 5 4 6 6 7 6 6 4 6 5 7 9 11 11 16 20 24 22 20 25 26 25 26 29 30 30 31 31 30 31 26 26 22
1 2 4 5 6 9 10 8 8 6 5 5 6 7 8 7 8 7 4 3 3 5 9 7 13 16 19 25 26 26 26 25 21 23 27 27 27 30 31 29 28 25 23 21
3 3 1 6 5 10 9 7 6 6 4 7 8 6 7 8 9 5 4 4 7 9 16 10 13 15 22 27 31 27 26 30 25 25 22 24 24 27 28 29 29 27 27 23
4 2 3 2 3 4 3 5 5 4 4 5 5 7 7 5 5 5 5 12 16 11 18 18 18 17 27 31 24 18 11 16 18 22 23 25 26 25 25 26 30 24 20 19
Wind_Direction
342 10 235 264 222 228 231 211 233 236 169 157 189 183 205 212 208 183 160 169 174 182 183 175 181 188 177 176 176 180 183 190 195 194 198 205 215 222 229 232 233 239 250 232
282 252 250 248 291 261 253 307 351 98 168 153 175 118 209 205 176 171 166 176 181 182 174 172 184 188 179 179 183 186 189 194 198 202 206 207 215 226 232 234 234 235 243 237
267 254 313 303 289 299 241 228 282 206 59 64 99 179 168 201 176 181 173 179 177 184 176 176 184 187 182 186 190 192 196 200 203 204 206 208 219 226 233 239 240 242 237 234
239 268 258 272 252 270 47 239 350 148 71 145 72 138 279 201 119 156 196 183 182 187 182 179 186 190 191 192 196 200 203 204 208 209 207 210 217 224 235 243 247 245 239 236
254 282 346 168 244 243 230 248 124 105 92 82 28 89 259 147 190 197 219 178 187 186 185 182 189 195 199 194 194 201 207 209 211 211 210 210 218 227 234 239 243 245 247 242
270 274 247 254 289 219 268 279 81 57 127 80 188 157 264 217 196 205 196 200 187 189 193 187 191 193 197 202 196 197 204 209 211 214 213 215 218 225 231 243 252 239 251 244
323 283 291 278 281 276 151 320 126 255 336 227 153 137 231 205 195 208 188 212 180 197 193 200 190 181 190 210 208 197 204 209 210 208 213 217 222 223 223 231 246 256 257 251
19 327 193 214 220 299 286 189 177 246 277 272 135 157 249 187 193 244 265 269 222 214 206 114 102 89 275 180 295 265 200 206 207 205 211 217 221 226 233 239 245 250 253 259
45 270 276 37 337 163 289 352 249 271 119 70 224 339 20 172 191 244 217 23 10 54 105 101 84 161 183 183 219 235 214 198 202 207 209 209 216 222 227 232 238 248 253 257
274 292 305 316 225 266 225 261 351 347 46 83 34 168 203 187 212 151 149 66 67 65 94 125 136 156 184 200 225 237 204 189 194 196 204 205 213 225 230 229 231 240 249 252
222 214 300 4 310 99 354 346 1 102 93 120 177 276 228 156 167 112 88 85 75 56 67 127 172 177 196 225 218 198 180 179 184 191 194 200 207 217 227 234 240 246 253 259
204 149 241 256 79 50 271 53 62 96 318 310 112 274 78 212 53 67 65 56 39 27 30 12 58 109 129 173 207 167 168 177 181 188 196 205 205 208 218 230 240 251 256 256
204 199 117 313 352 329 330 127 130 11 71 334 113 253 47 33 65 42 53 30 26 36 19 16 9 26 131 138 143 159 167 172 184 192 198 211 214 209 216 229 241 248 252 254
111 274 113 164 211 206 323 356 5 134 111 275 131 103 35 46 52 31 28 25 39 30 22 19 19 3 123 154 154 158 169 158 194 205 210 217 227 231 231 239 246 249 250 248
174 217 293 11 346 330 339 347 349 3 305 146 73 92 84 68 53 24 22 46 33 14 7 360 16 11 18 181 71 72 54 22 24 308 240 216 230 233 236 243 245 244 241 251
216 268 18 357 4 20 358 328 303 267 45 92 91 84 93 60 47 37 49 40 24 3 359 358 12 31 53 88 76 46 324 270 219 249 270 250 239 235 234 239 244 249 254 265
75 117 84 309 308 334 330 336 33 74 53 112 93 126 79 53 43 49 38 33 10 359 359 3 54 57 73 96 91 110 226 245 236 242 252 246 252 248 270 259 250 254 265 276
316 136 140 205 29 348 259 355 60 69 47 73 94 84 82 66 23 65 36 16 345 338 36 26 42 61 72 77 83 67 151 208 223 233 286 355 319 292 284 274 267 270 272 267
23 25 80 100 174 262 11 14 30 76 40 36 56 41 47 21 10 8 2 17 47 50 29 13 20 52 42 33 33 24 9 3 4 356 342 341 330 327 319 310 307 301 290 279
51 59 66 32 88 75 291 347 37 15 36 29 53 38 24 20 32 284 357 56 40 35 34 20 11 6 12 7 3 1 360 356 349 346 341 334 331 328 324 319 315 311 306 300
30 29 85 255 184 228 240 356 321 290 199 47 48 21 357 37 218 260 49 40 47 35 25 14 4 6 358 354 356 356 349 343 338 332 328 328 328 326 321 316 315 314 306 289
122 114 208 219 188 247 45 66 99 175 58 58 21 342 25 345 344 42 50 44 36 18 14 3 358 355 345 341 340 336 331 328 325 325 324 323 322 320 316 311 309 306 299 264
1 141 196 112 130 92 73 102 84 77 79 20 357 359 22 24 8 18 36 47 20 5 349 340 349 330 329 319 314 311 309 312 314 326 323 322 319 316 315 307 306 301 288 275
309 148 111 93 358 90 89 81 82 62 46 358 30 18 31 10 352 358 23 11 322 312 311 309 325 312 308 308 304 296 298 307 314 319 311 310 308 306 310 306 300 291 284 264
223 38 93 100 45 92 53 51 72 69 42 37 9 34 18 346 317 310 325 328 295 295 300 291 295 298 296 304 305 309 338 315 319 317 319 315 307 303 304 300 298 289 290 279
24 349 83 115 109 90 55 10 54 23 69 35 4 29 16 6 4 2 342 328 305 318 325 315 311 303 312 304 311 329 332 312 333 337 327 318 307 303 300 304 306 311 293 291
Height
772 778 792 775 759 759 757 761 779 748 725 745 755 758 751 742 748 748 751 753 755 756 754 758 762 766 769 772 776 779 782 785 788 791 794 796 797 798 799 800 800 801 802 803
784 788 755 750 745 752 748 751 752 731 720 726 753 774 747 738 736 737 743 748 748 750 752 755 759 763 766 769 772 776 778 781 782 784 787 790 793 794 795 795 795 797 798 798
796 762 745 749 744 745 739 748 750 751 726 732 748 775 754 736 727 728 730 733 738 742 747 750 752 755 759 763 766 769 771 775 777 778 782 785 788 791 791 791 791 791 792 793
782 747 750 747 749 736 755 724 730 732 757 785 749 807 762 746 741 735 728 732 733 735 736 740 745 748 750 754 759 762 764 766 768 772 775 777 779 780 782 784 785 786 786 787
761 748 747 739 737 721 738 714 729 736 763 775 786 810 779 745 756 746 733 729 727 725 725 731 736 739 742 744 748 752 757 761 763 765 767 768 770 772 775 778 779 780 780 780
742 722 726 726 710 709 705 721 738 752 771 808 787 795 785 767 751 741 730 722 719 719 717 718 722 729 736 741 741 744 748 749 754 757 760 762 763 766 770 773 774 774 774 775
752 739 719 711 729 710 716 743 792 809 810 808 762 788 774 741 728 723 725 721 714 711 712 713 713 722 735 742 741 738 740 743 744 748 753 757 759 763 765 767 769 769 770 770
795 787 729 704 719 731 732 742 785 802 800 798 758 789 761 724 715 712 709 711 710 710 706 712 721 734 736 732 743 745 730 737 741 743 744 749 752 755 757 760 762 763 764 764
788 773 719 704 704 712 733 756 723 758 758 806 777 755 734 722 724 721 714 713 712 716 720 717 720 715 721 727 716 720 728 727 734 738 742 744 749 751 752 755 756 757 758 759
761 780 733 713 704 705 715 711 763 766 793 811 791 776 780 747 741 723 716 722 719 715 718 723 722 721 723 719 714 720 724 723 730 738 744 743 747 752 755 756 755 754 753 753
755 768 749 726 730 739 739 751 742 750 769 807 811 801 733 737 729 724 724 720 718 715 715 717 718 718 717 713 719 719 722 727 731 734 736 737 741 745 751 754 755 754 752 749
744 758 789 753 710 699 712 729 741 787 785 774 787 790 724 715 720 727 728 723 719 715 712 710 710 713 711 712 723 726 725 728 734 737 738 737 732 734 741 747 750 751 749 747
733 758 782 774 744 722 728 720 719 736 753 773 799 783 725 730 728 733 733 728 725 722 718 715 713 713 715 714 720 724 728 731 733 734 736 742 743 735 733 737 743 745 745 741
710 738 757 784 763 739 744 732 724 735 777 772 770 776 756 749 744 739 735 732 729 727 723 720 718 718 713 716 719 723 727 736 732 737 739 739 743 741 734 734 735 736 738 735
715 749 737 732 728 727 729 734 733 743 739 759 761 773 763 752 748 742 736 733 732 731 726 724 724 722 722 722 729 735 733 737 730 746 736 727 729 729 728 728 728 728 731 729
711 753 737 740 732 731 740 730 729 728 733 751 755 768 746 741 740 743 741 738 738 734 730 727 725 725 728 731 734 728 727 723 723 719 733 728 726 724 722 722 722 724 725 725
720 742 756 766 740 741 765 740 730 732 731 745 772 759 745 750 747 748 745 739 738 735 731 732 736 732 732 735 732 730 727 723 724 725 728 721 723 722 723 720 718 718 719 720
724 737 749 771 758 791 746 716 716 738 737 738 746 747 747 748 744 744 739 739 738 735 735 734 735 736 734 734 733 733 731 730 730 730 725 716 725 724 718 718 715 712 712 708
715 730 755 777 778 758 748 735 735 744 767 745 751 749 748 745 742 744 739 737 741 739 737 735 734 735 734 734 733 733 732 728 726 726 725 722 723 719 715 710 707 705 701 698
737 749 765 798 824 846 782 736 717 723 788 751 751 754 754 751 776 765 743 740 740 740 739 737 734 732 731 730 729 726 724 722 722 721 720 718 715 711 707 703 701 697 693 692
774 780 801 811 807 790 750 735 720 770 787 752 751 752 752 760 757 747 741 741 740 740 739 737 735 733 731 728 726 725 723 721 718 715 712 709 706 703 700 695 692 690 687 685
763 779 779 783 781 784 728 734 764 761 749 750 748 748 749 747 744 743 742 742 741 740 738 737 736 735 732 728 725 722 719 716 712 709 705 702 699 696 693 689 685 683 681 680
765 748 765 757 761 742 738 747 743 743 749 747 746 745 745 747 746 743 743 741 741 739 738 736 735 733 731 729 725 720 715 711 706 704 701 699 695 692 689 685 680 676 674 671
730 722 751 751 754 749 745 743 742 742 744 743 743 744 745 748 745 744 742 741 739 737 736 734 733 731 728 726 721 717 714 713 710 701 698 696 692 688 684 680 675 670 667 663
733 727 739 755 751 747 746 744 741 741 741 743 743 744 746 746 746 742 741 740 738 735 734 731 728 727 725 721 716 713 712 713 707 703 695 693 689 684 678 674 668 663 658 656
731 740 754 766 748 749 750 742 739 742 742 743 745 746 745 745 744 743 741 739 737 735 733 732 730 724 722 717 712 712 707 709 702 694 693 690 685 679 673 667 658 655 654 653